Luverne, MN

3:53 AM CDT on October 21, 2019 (GMT -0500)
Luverne

Weather History for KLYV - September, 2019

Change the Weather History Date:

Sunday, September 22, 2019

  Actual Average (KPQN) Record (KPQN)
Temperature  
Mean Temperature 60 °F -  
Max Temperature 68 °F 66 °F 89 °F (2017)
Min Temperature 51 °F 44 °F 32 °F (2012)
Degree Days  
Heating Degree Days 6    
Growing Degree Days 10 (Base 50)    
Moisture  
Dew Point 50 °F    
Average Humidity 74    
Maximum Humidity 94    
Minimum Humidity 43    
Precipitation  
Precipitation 0.00 in - - ()
Sea Level Pressure  
Sea Level Pressure 29.93 in    
Wind  
Wind Speed 3 mph (NW)    
Max Wind Speed 9 mph    
Max Gust Speed -    
Visibility 10 miles    
Events Rain    
Averages and records for this station are not official NWS values.
T = Trace of Precipitation, MM = Missing Value Source: NWS Daily Summary

Daily Weather History Graph

Daily Weather History Graph

Search for Another Location

Airport or City:

Astronomy

Sep. 22, 2019 Rise Set
Actual Time 7:11 AM CDT 7:22 PM CDT
Civil Twilight 6:43 AM CDT 7:51 PM CDT
Nautical Twilight 6:09 AM CDT 8:24 PM CDT
Astronomical Twilight 5:35 AM CDT 8:58 PM CDT
Moon No Moon Rise 3:30 PM CDT (9/22)
Length of Visible Light 13h 07m
Length of Day
12h 10m
Last Quarter, 44% of the Moon is Illuminated
Sep 22
Last Quarter
Sep 28
New
Oct 5
First Quarter
Oct 13
Full
Oct 21
Last Quarter

Hourly Weather History & Observations

Time (CDT) Temp. Dew Point Humidity Pressure Visibility Wind Dir Wind Speed Gust Speed Precip Events Conditions
12:15 AM 59.0 °F 53.6 °F 82% 29.91 in 10.0 mi Calm Calm - N/A   Clear
12:19 AM 59.0 °F 53.6 °F 82% 29.91 in 10.0 mi Calm Calm - N/A   Clear
12:38 AM 59.0 °F 53.6 °F 82% 29.90 in 10.0 mi WNW 4.6 mph - N/A   Clear
12:55 AM 59.0 °F 53.6 °F 82% 29.89 in 10.0 mi Calm Calm - N/A   Clear
1:16 AM 59.0 °F 53.6 °F 82% 29.88 in 10.0 mi Calm Calm - N/A   Clear
1:36 AM 57.2 °F 53.6 °F 88% 29.88 in 10.0 mi Calm Calm - N/A   Clear
1:58 AM 57.2 °F 53.6 °F 88% 29.88 in 10.0 mi Calm Calm - N/A   Clear
2:16 AM 59.0 °F 53.6 °F 82% 29.88 in 10.0 mi Calm Calm - N/A   Clear
2:36 AM 57.2 °F 53.6 °F 88% 29.90 in 10.0 mi South 3.5 mph - N/A   Clear
2:56 AM 55.4 °F 53.6 °F 94% 29.90 in 10.0 mi Calm Calm - N/A   Clear
3:15 AM 55.4 °F 53.6 °F 94% 29.90 in 10.0 mi Calm Calm - N/A   Clear
3:19 AM 55.4 °F 53.6 °F 94% 29.90 in 10.0 mi Calm Calm - N/A   Clear
3:37 AM 55.4 °F 53.6 °F 94% 29.90 in 10.0 mi Calm Calm - N/A   Clear
3:56 AM 55.4 °F 51.8 °F 88% 29.91 in 10.0 mi West 4.6 mph - N/A   Clear
4:16 AM 55.4 °F 51.8 °F 88% 29.91 in 10.0 mi WNW 3.5 mph - N/A   Clear
4:58 AM 55.4 °F 51.8 °F 88% 29.91 in 10.0 mi WNW 6.9 mph - N/A   Clear
5:16 AM 55.4 °F 50.0 °F 82% 29.91 in 10.0 mi NW 3.5 mph - N/A   Clear
5:36 AM 53.6 °F 50.0 °F 88% 29.91 in 10.0 mi WNW 5.8 mph - N/A   Clear
5:55 AM 55.4 °F 50.0 °F 82% 29.92 in 10.0 mi WNW 9.2 mph - N/A   Clear
6:15 AM 55.4 °F 50.0 °F 82% 29.91 in 10.0 mi NW 8.1 mph - N/A   Clear
6:19 AM 55.4 °F 50.0 °F 82% 29.91 in 10.0 mi NW 6.9 mph - N/A   Clear
6:37 AM 55.4 °F 50.0 °F 82% 29.91 in 10.0 mi NW 8.1 mph - N/A   Clear
6:56 AM 53.6 °F 50.0 °F 88% 29.92 in 10.0 mi NW 5.8 mph - N/A   Clear
7:16 AM 53.6 °F 50.0 °F 88% 29.93 in 10.0 mi WNW 6.9 mph - N/A   Clear
7:59 AM 53.6 °F 50.0 °F 88% 29.96 in 10.0 mi Calm Calm - N/A   Overcast
8:16 AM 53.6 °F 51.8 °F 94% 29.97 in 10.0 mi WNW 5.8 mph - N/A   Mostly Cloudy
8:36 AM 55.4 °F 51.8 °F 88% 29.95 in 10.0 mi NNW 6.9 mph - N/A   Overcast
8:56 AM 55.4 °F 51.8 °F 88% 29.95 in 10.0 mi Calm Calm - N/A Rain Light Rain
9:15 AM 55.4 °F 51.8 °F 88% 29.92 in 10.0 mi NNE 3.5 mph - N/A   Scattered Clouds
9:20 AM 55.4 °F 51.8 °F 88% 29.93 in 10.0 mi Calm Calm - N/A   Scattered Clouds
9:37 AM 55.4 °F 51.8 °F 88% 29.92 in 10.0 mi NE 3.5 mph - N/A   Clear
9:55 AM 55.4 °F 51.8 °F 88% 29.90 in 10.0 mi ENE 4.6 mph - N/A   Scattered Clouds
10:16 AM 57.2 °F 53.6 °F 88% 29.90 in 10.0 mi ENE 5.8 mph - N/A   Mostly Cloudy
10:36 AM 59.0 °F 53.6 °F 82% 29.90 in 10.0 mi ENE 6.9 mph - N/A   Overcast
10:58 AM 59.0 °F 51.8 °F 77% 29.93 in 10.0 mi North 5.8 mph - N/A   Mostly Cloudy
11:16 AM 59.0 °F 51.8 °F 77% 29.94 in 10.0 mi NNW 5.8 mph - N/A   Scattered Clouds
11:35 AM 60.8 °F 51.8 °F 72% 29.94 in 10.0 mi NW 9.2 mph - N/A   Mostly Cloudy
11:56 AM 62.6 °F 50.0 °F 63% 29.93 in 10.0 mi NNW 4.6 mph - N/A   Overcast
12:15 PM 62.6 °F 48.2 °F 59% 29.93 in 10.0 mi North 4.6 mph - N/A   Mostly Cloudy
12:19 PM 62.6 °F 46.4 °F 55% 29.93 in 10.0 mi North 3.5 mph - N/A   Mostly Cloudy
12:38 PM 60.8 °F 48.2 °F 63% 29.93 in 10.0 mi NE 3.5 mph - N/A   Overcast
12:55 PM 62.6 °F 48.2 °F 59% 29.94 in 10.0 mi Calm Calm - N/A   Overcast
1:16 PM 62.6 °F 50.0 °F 63% 29.93 in 10.0 mi Calm Calm - N/A   Mostly Cloudy
1:36 PM 62.6 °F 50.0 °F 63% 29.93 in 10.0 mi NNW 6.9 mph - N/A   Overcast
1:59 PM 62.6 °F 48.2 °F 59% 29.93 in 10.0 mi NW 8.1 mph - N/A   Scattered Clouds
2:16 PM 64.4 °F 50.0 °F 59% 29.93 in 10.0 mi NW 5.8 mph - N/A   Mostly Cloudy
2:36 PM 64.4 °F 48.2 °F 56% 29.92 in 10.0 mi North 8.1 mph - N/A   Mostly Cloudy
2:56 PM 64.4 °F 50.0 °F 59% 29.92 in 10.0 mi Calm Calm - N/A   Mostly Cloudy
3:15 PM 66.2 °F 48.2 °F 52% 29.91 in 10.0 mi WNW 5.8 mph - N/A   Scattered Clouds
3:37 PM 64.4 °F 48.2 °F 56% 29.91 in 10.0 mi North 3.5 mph - N/A   Mostly Cloudy
3:56 PM 68.0 °F 48.2 °F 49% 29.92 in 10.0 mi NNW 3.5 mph - N/A   Mostly Cloudy
4:16 PM 68.0 °F 46.4 °F 46% 29.91 in 10.0 mi NW 4.6 mph - N/A   Scattered Clouds
4:36 PM 68.0 °F 48.2 °F 49% 29.91 in 10.0 mi North 6.9 mph - N/A   Mostly Cloudy
4:58 PM 66.2 °F 46.4 °F 49% 29.92 in 10.0 mi NNW 3.5 mph - N/A   Mostly Cloudy
5:16 PM 66.2 °F 46.4 °F 49% 29.92 in 10.0 mi Calm Calm - N/A   Scattered Clouds
5:36 PM 68.0 °F 46.4 °F 46% 29.92 in 10.0 mi NNW 4.6 mph - N/A   Scattered Clouds
5:55 PM 66.2 °F 42.8 °F 43% 29.92 in 10.0 mi NW 8.1 mph - N/A   Scattered Clouds
6:15 PM 64.4 °F 44.6 °F 49% 29.93 in 10.0 mi NW 4.6 mph - N/A   Clear
6:19 PM 64.4 °F 44.6 °F 49% 29.93 in 10.0 mi NW 4.6 mph - N/A   Clear
6:37 PM 64.4 °F 46.4 °F 52% 29.93 in 10.0 mi WNW 5.8 mph - N/A   Clear
6:55 PM 60.8 °F 46.4 °F 59% 29.94 in 10.0 mi WNW 4.6 mph - N/A   Clear
7:16 PM 60.8 °F 48.2 °F 63% 29.94 in 10.0 mi WNW 4.6 mph - N/A   Clear
7:36 PM 59.0 °F 48.2 °F 67% 29.95 in 10.0 mi West 4.6 mph - N/A   Clear
7:59 PM 57.2 °F 48.2 °F 72% 29.96 in 10.0 mi WNW 4.6 mph - N/A   Clear
8:35 PM 55.4 °F 48.2 °F 77% 29.97 in 10.0 mi Calm Calm - N/A   Clear
8:56 PM 53.6 °F 48.2 °F 82% 29.97 in 10.0 mi Calm Calm - N/A   Clear
9:15 PM 53.6 °F 48.2 °F 82% 29.98 in 10.0 mi Calm Calm - N/A   Clear
9:20 PM 53.6 °F 48.2 °F 82% 29.98 in 10.0 mi Calm Calm - N/A   Clear
9:38 PM 53.6 °F 46.4 °F 77% 29.99 in 10.0 mi West 6.9 mph - N/A   Clear
9:56 PM 51.8 °F 46.4 °F 82% 29.99 in 10.0 mi West 4.6 mph - N/A   Clear
10:15 PM 53.6 °F 46.4 °F 77% 29.99 in 10.0 mi Calm Calm - N/A   Clear
10:36 PM 51.8 °F 46.4 °F 82% 29.99 in 10.0 mi Calm Calm - N/A   Clear
10:58 PM 51.8 °F 46.4 °F 82% 29.99 in 10.0 mi Calm Calm - N/A   Clear
11:17 PM 51.8 °F 46.4 °F 82% 29.99 in 10.0 mi Calm Calm - N/A   Clear
11:36 PM 51.8 °F 46.4 °F 82% 29.99 in 10.0 mi Calm Calm - N/A   Clear
11:56 PM 51.8 °F 46.4 °F 82% 29.99 in 10.0 mi Calm Calm - N/A   Clear